Blue Canyon, CA

6:19 AM PDT on March 28, 2017 (GMT -0700)
Blue Canyon-Nyack

Weather History for KBLU - September, 2013

Change the Weather History Date:

Friday, September 20, 2013

  Actual Average Record
Temperature  
Mean Temperature 58 °F -  
Max Temperature 66 °F 68 °F 89 °F (1974)
Min Temperature 50 °F 50 °F 33 °F (2004)
Degree Days  
Heating Degree Days 7    
Growing Degree Days 8 (Base 50)    
Moisture  
Dew Point 31 °F    
Average Humidity 37    
Maximum Humidity 89    
Minimum Humidity 20    
Precipitation  
Precipitation 0.00 in - - ()
Sea Level Pressure  
Sea Level Pressure 30.08 in    
Wind  
Wind Speed 8 mph (SSE)    
Max Wind Speed 17 mph    
Max Gust Speed 24 mph    
Visibility 10 miles    
Events      
Averages and records for this station are not official NWS values.
T = Trace of Precipitation, MM = Missing Value Source: NWS Daily Summary

Daily Weather History Graph

Daily Weather History Graph

Search for Another Location

Airport or City:

Trip Planner

Search our weather history database for the weather conditions in past years. The results will help you decide how hot, cold, wet, or windy it might be!

Date:

Astronomy

Sep. 20, 2013 Rise Set
Actual Time 6:48 AM PDT 7:02 PM PDT
Civil Twilight 6:22 AM PDT 7:29 PM PDT
Nautical Twilight 5:50 AM PDT 8:00 PM PDT
Astronomical Twilight 5:18 AM PDT 8:32 PM PDT
Moon 7:40 PM PDT (9/20) 8:08 AM PDT (9/20)
Length of Visible Light 13h 07m
Length of Day
12h 13m
Full, 98% of the Moon is Illuminated
Sep 20
Full
Sep 26
Last Quarter
Oct 4
New
Oct 11
First Quarter
Oct 18
Full

Hourly Weather History & Observations

Time (PDT) Temp. Dew Point Humidity Pressure Visibility Wind Dir Wind Speed Gust Speed Precip Events Conditions
12:52 AM 62.1 °F 25.0 °F 24% 29.75 in 10.0 mi SE 5.8 mph - N/A   Clear
12:55 AM 62.6 °F 24.8 °F 24% 30.41 in 10.0 mi SE 5.8 mph - N/A   Clear
1:52 AM 63.0 °F 21.9 °F 21% 29.74 in 10.0 mi SSE 5.8 mph - N/A   Clear
1:55 AM 62.6 °F 21.2 °F 20% 30.41 in 10.0 mi SSE 5.8 mph - N/A   Clear
2:52 AM 61.0 °F 21.9 °F 22% 29.74 in 10.0 mi Variable 6.9 mph - N/A   Clear
2:55 AM 62.6 °F 21.2 °F 20% 30.41 in 10.0 mi Variable 6.9 mph - N/A   Clear
3:52 AM 60.1 °F 21.9 °F 23% 29.73 in 10.0 mi SE 3.5 mph - N/A   Clear
3:55 AM 60.8 °F 21.2 °F 22% 30.41 in 10.0 mi SE 4.6 mph - N/A   Clear
4:52 AM 61.0 °F 21.9 °F 22% 29.71 in 10.0 mi SE 4.6 mph - N/A   Clear
4:55 AM 60.8 °F 21.2 °F 22% 30.41 in 10.0 mi SE 5.8 mph - N/A   Clear
5:52 AM 61.0 °F 21.9 °F 22% 29.72 in 10.0 mi SE 4.6 mph - N/A   Clear
5:55 AM 60.8 °F 21.2 °F 22% 30.41 in 10.0 mi SE 4.6 mph - N/A   Clear
6:52 AM 61.0 °F 21.9 °F 22% 29.73 in 10.0 mi SSE 4.6 mph - N/A   Clear
6:55 AM 60.8 °F 21.2 °F 22% 30.41 in 10.0 mi SSE 5.8 mph - N/A   Clear
7:52 AM 61.0 °F 24.1 °F 24% 29.74 in 10.0 mi SSE 4.6 mph - N/A   Clear
7:55 AM 60.8 °F 24.8 °F 25% 30.41 in 10.0 mi SSE 4.6 mph - N/A   Clear
8:52 AM 63.0 °F 25.0 °F 24% 29.74 in 10.0 mi South 11.5 mph - N/A   Clear
8:55 AM 62.6 °F 24.8 °F 24% 30.41 in 10.0 mi South 10.4 mph - N/A   Clear
9:52 AM 63.0 °F 28.9 °F 28% 29.75 in 10.0 mi SSE 10.4 mph 17.3 mph N/A   Clear
9:55 AM 62.6 °F 28.4 °F 27% 30.41 in 10.0 mi South 10.4 mph - N/A   Clear
10:52 AM 64.0 °F 28.9 °F 27% 29.75 in 10.0 mi South 12.7 mph - N/A   Clear
10:55 AM 64.4 °F 28.4 °F 26% 30.41 in 10.0 mi South 13.8 mph - N/A   Clear
11:52 AM 66.0 °F 30.9 °F 27% 29.74 in 10.0 mi South 17.3 mph - N/A   Clear
11:55 AM 66.2 °F 30.2 °F 26% 30.41 in 10.0 mi South 15.0 mph - N/A   Clear
12:52 PM 66.9 °F 30.0 °F 25% 29.74 in 10.0 mi South 15.0 mph 21.9 mph N/A   Clear
12:55 PM 66.2 °F 30.2 °F 26% 30.41 in 10.0 mi South 15.0 mph 20.7 mph N/A   Clear
1:10 PM 66.2 °F 28.4 °F 24% 30.41 in 10.0 mi SW 11.5 mph 17.3 mph N/A   Clear
1:17 PM 66.2 °F 30.2 °F 26% 29.99 in 10.0 mi SSW 11.5 mph 21.9 mph N/A   Clear
1:52 PM 66.9 °F 32.0 °F 27% 29.73 in 10.0 mi South 10.4 mph 21.9 mph N/A   Clear
1:55 PM 66.2 °F 30.2 °F 26% 30.41 in 10.0 mi South 12.7 mph - N/A   Clear
2:52 PM 64.9 °F 33.1 °F 31% 29.75 in 10.0 mi South 11.5 mph 24.2 mph N/A   Clear
2:55 PM 64.4 °F 33.8 °F 32% 30.41 in 10.0 mi South 17.3 mph - N/A   Clear
3:52 PM 64.0 °F 30.9 °F 29% 29.75 in 10.0 mi SSW 13.8 mph 24.2 mph N/A   Clear
3:55 PM 64.4 °F 30.2 °F 28% 30.41 in 10.0 mi SSW 15.0 mph - N/A   Clear
4:52 PM 63.0 °F 28.0 °F 27% 29.74 in 10.0 mi South 16.1 mph 23.0 mph N/A   Clear
4:55 PM 62.6 °F 26.6 °F 26% 30.41 in 10.0 mi South 17.3 mph - N/A   Clear
5:52 PM 60.1 °F 34.0 °F 38% 29.74 in 10.0 mi South 12.7 mph - N/A   Clear
5:55 PM 60.8 °F 33.8 °F 36% 30.41 in 10.0 mi South 13.8 mph - N/A   Clear
6:52 PM 55.9 °F 41.0 °F 57% 29.76 in 10.0 mi SSW 11.5 mph - N/A   Clear
6:55 PM 55.4 °F 41.0 °F 58% 30.41 in 10.0 mi South 9.2 mph - N/A   Clear
7:52 PM 53.1 °F 39.9 °F 61% 29.78 in 10.0 mi SSE 8.1 mph - N/A   Clear
7:55 PM 53.6 °F 39.2 °F 58% 30.41 in 10.0 mi SSE 6.9 mph - N/A   Clear
8:52 PM 51.1 °F 45.0 °F 80% 29.79 in 10.0 mi SSE 9.2 mph - N/A   Clear
8:55 PM 51.8 °F 44.6 °F 76% 30.41 in 10.0 mi SSE 10.4 mph - N/A   Clear
9:52 PM 50.0 °F 46.9 °F 89% 29.79 in 10.0 mi SSE 8.1 mph - N/A   Partly Cloudy
9:55 PM 50.0 °F 46.4 °F 87% 30.41 in 10.0 mi SSE 9.2 mph - N/A   Partly Cloudy
10:52 PM 50.0 °F 46.0 °F 86% 29.79 in 10.0 mi SSE 10.4 mph - N/A   Clear
10:55 PM 50.0 °F 46.4 °F 87% 30.41 in 10.0 mi SSE 9.2 mph - N/A   Clear
11:52 PM 50.0 °F 45.0 °F 83% 29.78 in 10.0 mi SSE 8.1 mph - N/A   Clear
11:55 PM 50.0 °F 44.6 °F 82% 30.41 in 10.0 mi SSE 10.4 mph - N/A   Clear